Location: Seattle
(47.6064°N, 122.3308°W)
Time: 02:01:46
(UTC-07:00)

STRAND 1 - Pass Details

Date: 02 April 2023
Orbit: 767 x 779 km, 98.4° (Epoch: 02 June)

Event Time Altitude Azimuth Distance (km) Brightness Sun altitude
Rises 21:00:07 0° 6° (N) 3,252 ? -13.7°
Reaches altitude 10° 21:02:35 10° 358° (N) 2,320 ? -14.0°
Maximum altitude 21:07:09 34° 295° (WNW) 1,247 ? -14.7°
Drops below altitude 10° 21:11:42 10° 231° (SW) 2,305 ? -15.4°
Sets 21:14:10 0° 223° (SW) 3,227 ? -15.8°
